Regional Weather Roundup
Issued by NWS

Home | Current Version | Previous Version | Graphics & Text | Print | Product List | Glossary On
Versions: 1 2 3 4 5 6 7 8 9 10 11 12 13 14 15 16 17 18 19 20 21 22 23 24 25 26 27 28 29 30 31 32 33 34 35 36 37 38 39 40 41 42 43 44 45 46 47 48 49 50
535
ASUS45 KPSR 290510
RWRAZ

ARIZONA HOURLY REGIONAL WEATHER ROUNDUP
NATIONAL WEATHER SERVICE PHOENIX AZ
1000 PM MST THU APR 28 2016

NOTE: FAIR INDICATES FEW OR NO CLOUDS BELOW 12,000 FEET WITH NO
SIGNIFICANT WEATHER AND/OR OBSTRUCTIONS TO VISIBILITY.

AZZ001>003-036-290600-
NORTHWEST ARIZONA

CITY           SKY/WX    TMP DP  RH WIND       PRES   REMARKS
BULLHEAD CITY  CLOUDY    63  54  72 W5        29.81R
KINGMAN        LGT RAIN  48  44  86 S14       29.86R
$$

AZZ004>008-015-016-018-290600-
NORTH CENTRAL ARIZONA

CITY           SKY/WX    TMP DP  RH WIND       PRES   REMARKS
GRAND CANYON   CLOUDY    38  36  92 SW7       29.87R WCI  33
WILLIAMS       CLOUDY    37  36  93 SW6       29.95R WCI  33
PRESCOTT       MOCLDY    44  40  85 N3        29.87R
FLAGSTAFF      MOCLDY    34  32  92 SW6       29.87S WCI  29
PAYSON         CLOUDY    46  32  57 NW7       29.88R
PAGE           LGT RAIN  47  43  86 S3        29.82R FOG
$$

AZZ009>014-017-290600-
NORTHEAST ARIZONA

CITY           SKY/WX    TMP DP  RH WIND       PRES   REMARKS
WINSLOW        MOCLDY    43  28  55 SW6       29.84R
SAINT JOHNS    MOCLDY    48  21  34 S12       29.84R
WINDOW ROCK    MOCLDY    42  14  32 CALM      29.86R
SHOW LOW       PTCLDY    39   7  26 S3        29.88R
$$

AZZ023-290600-
GREATER PHOENIX AREA

CITY           SKY/WX    TMP DP  RH WIND       PRES   REMARKS
PHOENIX        PTCLDY    70  32  24 NW12      29.74R
BUCKEYE        CLEAR     64  32  29 N6        29.78R
LUKE AFB       CLEAR     65  36  34 NW5       29.75R
DEER VALLEY    CLEAR     65  31  28 NW6       29.76R
SCOTTSDALE     PTCLDY    67  30  25 NW5       29.78R
MESA-GATEWAY   PTCLDY    63  32  31 SW12      29.77R
$$

AZZ027-028-290600-
SOUTHWEST MARICOPA COUNTY AND PINAL COUNTY

CITY           SKY/WX    TMP DP  RH WIND       PRES   REMARKS
CASA GRANDE    CLEAR     63  30  29 W7        29.80R
GILA BEND      CLEAR     66  35  31 SW9       29.77R
$$

AZZ503-504-507>509-290600-
SOUTHEAST ARIZONA

CITY           SKY/WX    TMP DP  RH WIND       PRES   REMARKS
TUCSON         CLEAR     63  23  21 NW5       29.85R
DAVIS-MONTHAN  CLEAR     62  24  23 NW8       29.83R
NOGALES        CLEAR     51  30  44 S5        29.90R
SIERRA VISTA   CLEAR     52  31  44 W17       29.89S
DOUGLAS        CLEAR     57  16  20 W20G26    29.86R
SAFFORD        MOCLDY    60  24  25 NW13      29.78R
$$

AZZ020-021-025-026-031-290600-
SOUTHWEST ARIZONA

CITY           SKY/WX    TMP DP  RH WIND       PRES   REMARKS
YUMA           PTCLDY    64  43  46 W8        29.79R
$$

CAZ031-033-041-043-047-048-061-290600-
SOUTHERN CALIFORNIA

CITY           SKY/WX    TMP DP  RH WIND       PRES   REMARKS
DOWNTOWN L.A.  CLEAR     58  50  75 CALM      29.94R
L.A. AIRPORT   PTCLDY    58  51  78 NW5       29.94R
SAN DIEGO      MOCLDY    61  50  67 SW6       29.98R
BURBANK        CLEAR     55  49  80 S6        29.93R
ONTARIO        PTCLDY    56  44  64 W6        29.94R
RIVERSIDE      CLEAR     58  43  57 CALM      29.94R
PALM SPRINGS   CLEAR     70  39  32 W21G35    29.78R
EL CENTRO NAS  CLEAR     64  41  42 W16       29.81R
IMPERIAL       CLEAR     65  43  44 W12       29.78R
BLYTHE         CLEAR     71  42  35 SW12      29.75R
NEEDLES        CLOUDY    65  52  62 N8        29.78R
$$

NVZ020-UTZ003-290600-
SOUTHERN NEVADA-UTAH

CITY           SKY/WX    TMP DP  RH WIND       PRES   REMARKS
LAS VEGAS      CLOUDY    57  49  74 CALM      29.79R
SALT LAKE CITY MOCLDY    50  31  48 E9        29.83S
$$

NMZ009-TXZ055-290600-
NEW MEXICO-WEST TEXAS

CITY           SKY/WX    TMP DP  RH WIND       PRES   REMARKS
ALBUQUERQUE    CLOUDY    62  10  13 NW16      29.76R
EL PASO        CLEAR     70  26  19 SW16      29.74R
$$


........................KEY........................
SKY/WX - SKY CONDITION/WEATHER
TMP    - TEMPERATURE IN FAHRENHEIT
DP     - DEW POINT IN FAHRENHEIT
RH     - RELATIVE HUMIDITY IN PERCENT
WIND   - DIRECTION AND SPEED IN MILES PER HOUR (MPH)
VRB    - VARIABLE WIND DIRECTION
PRES   - MEAN SEA LEVEL PRESSURE IN INCHES OF MERCURY
         F - FALLING PRESSURE   R - RISING PRESSURE
         S - STEADY PRESSURE
VSB    - VISIBILITY IN MILES
HX     - HEAT INDEX IN FAHRENHEIT
WCI    - WIND CHILL INDEX IN FAHRENHEIT
TC     - TEMPERATURE IN CELSIUS WHICH IS ALSO KNOWN AS
         TEMPERATURE IN CENTIGRADE
AFB    - AIR FORCE BASE
         LUKE AFB IS LUKE AIR FORCE BASE
         DAVIS-MONTHAN IS DAVIS-MONTHAN AIR FORCE BASE
NAS    - NAVAL AIR STATION
         EL CENTRO NAS IS EL CENTRO NAVAL AIR STATION
N/A    - NOT AVAILABLE





USA.gov is the U.S. government's official web portal to all federal, state and local government web resources and services.